User: anonymous   Login
Location: Lake Arresoe
(56.0000°N, 12.5000°E)
Time: 10:41:54
(UTC+02:00)
Language:

Resurs 1-4 Rocket - Orbit

View from above orbital plane
View from above orbital plane
View from above satellite
View from above satellite

Ground track
Ground track

The orbit data is extracted from the following two-line orbital elements,

1 25400U 98043G   20267.56269670 -.00000011  00000-0  13749-4 0  9994
2 25400  98.6111 201.6994 0010861  53.0027 307.2146 14.25460861155228
Epoch (UTC): 23 September 2020 13:30:16
Eccentricity: 0.0010861
inclination: 98.6111°
perigee height: 799 km
apogee height: 815 km
right ascension of ascending node: 201.6994°
argument of perigee: 53.0027°
revolutions per day: 14.25460861
mean anomaly at epoch: 307.2146°
orbit number at epoch: 15522

The dashed part of the orbit path shows where the satellite is in the earth's shadow,  

DLR